Tracking 17780 objects as of 28-July-2016
HD Live streaming from Space Station
objects crossing your sky now

COSMOS 1015

Track COSMOS 1015 now!
10-day predictions
COSMOS 1015 is classified as:


NORAD ID: 10932
Int'l Code: 1978-056C
Perigee: 1,480.8 km
Apogee: 1,523.2 km
Inclination: 74.0 °
Period: 115.9 minutes
Semi major axis: 7873 km
RCS: 0.7013 m2 (medium)
Launch date: June 7, 1978
Source: Commonwealth of Independent States (former USSR) (CIS)
Launch site: PLESETSK MISSILE AND SPACE COMPLEX (PKMTR)
Your satellite tracking list
Your tracking list is empty





NASA's NSSDC Master Catalog

Two Line Element Set (TLE):
1 10932U 78056C   16209.49385725 -.00000010  00000-0  38609-4 0  9994
2 10932  74.0289 331.9681 0026937  89.7826 338.4397 12.42768718730402
Source of the keplerian elements: AFSPC

N2YO: 1670